Retour au catalogue

CZ-6A DEB

ActifSSO
NORAD 56682·DEBRIS·🇨🇳 China

Lancé Nov 11, 2022 depuis Taiyuan Satellite Launch Center

Loading…

Prochains Passages (prochaines 24 heures)

TLE

FraisSource: Space-Track

Époque: Sep 14, 2026, 10:22 UTC

1 56682U 22151AHJ 26257.43248742  .00000608  00000-0  34747-3 0  9996
2 56682  98.8317 255.8828 0045220  66.2468 294.3437 14.12817389172723

Suivez CZ-6A DEB en temps réel avec AllMySat

Download on the App Store